[[{"header":{"parameterUnit":"m.s-1","parameterCategory":1,"la1":30.2991,"la2":30.254,"lo1":-89.0895,"lo2":-89.0444,"dy":0.0017,"dx":0.0017,"nx":28,"ny":28,"refTime":"2024-04-04T03:00:00:Z","depth":0,"parameterNumber":2,"parameterNumberName":"U-component_of_WINDS"},"data":[0,0,0,0,0,0,0,0,0,0,0,0,0,0,0,0,0,0,0,0,0,0,0,0,0,0,0,0,0,0,0,0,0,0,0,0,0,0,0,0,0,0,0,0,0,0,0,0,0,0,0,0,0,0,0,0,0,0,0.7484,0.7484,0,0.7549,0.755,0.7551,0.7683,0.7686,0.7688,0.7691,0.7754,0.7753,0.7753,0,0,0,0,0,0,0,0,0,0,0,0,0,0.7469,0.7469,0.7484,0.7485,0.7485,0.7549,0.755,0.7551,0.7682,0.7686,0.7689,0.7692,0.7754,0.7753,0.7752,0,0,0,0,0,0,0,0,0,0,0,0,0,0.7499,0.7469,0.7484,0.7559,0.7566,0.7549,0.755,0.7551,0.7682,0.7686,0.769,0.7693,0.7755,0.7754,0.7752,0.7666,0,0,0.7749,0.7748,0,0,0,0,0,0,0,0,0.7497,0.7499,0.7547,0.7554,0.7562,0.7612,0.7569,0.759,0.7681,0.7638,0.7691,0.7695,0.7703,0.7707,0.771,0.7669,0.7672,0.7749,0.7748,0.7748,0.7747,0,0,0,0,0,0,0,0.7495,0.7497,0.751,0.7547,0.7556,0.7588,0.7597,0.7573,0.7647,0.7642,0.7652,0.7658,0.7708,0.7711,0.7713,0.7673,0.7749,0.7748,0.7747,0.7747,0.7565,0.7561,0,0,0,0,0,0,0.7482,0.7495,0.7508,0.7512,0.7539,0.7585,0.7595,0.7592,0.7648,0.7661,0.7654,0.7664,0.7711,0.7714,0.7715,0.7619,0.7748,0.7747,0.7746,0.7569,0.7564,0.756,0,0,0,0,0,0,0.7482,0.7482,0.7505,0.7506,0.7511,0.7581,0.7577,0.7591,0.7594,0.7658,0.7671,0.7644,0.7714,0.7717,0.7678,0.7623,0.7746,0.7745,0.7574,0.7567,0.7562,0.7424,0,0,0,0,0,0,0.7481,0.7481,0.745,0.7504,0.7511,0.7467,0.7573,0.7589,0.7592,0.7605,0.7651,0.7663,0.7718,0.7679,0.7677,0.7623,0.7744,0.7579,0.7571,0.7564,0.7433,0.7413,0.7396,0,0,0,0,0,0.748,0.7408,0.7448,0.7448,0.7473,0.7463,0.7467,0.7533,0.7587,0.7556,0.7597,0.7661,0.7629,0.7674,0.7672,0.7618,0.7583,0.7573,0.7564,0.7442,0.7417,0.7397,0,0,0,0,0,0,0.7343,0.7416,0.7461,0.7405,0.7427,0.7486,0.7448,0.7505,0.7511,0.7522,0.7603,0.7612,0.7562,0.7586,0.7635,0.7538,0.7616,0.7606,0.7523,0.7501,0.7483,0.7478,0.7743,0,0,0,0,0,0.7307,0.7294,0.7358,0.7302,0.7311,0.7377,0.7375,0.7424,0.745,0.7459,0.7498,0.7519,0.7514,0.7509,0.7508,0.7438,0.7449,0.7399,0.7381,0.7365,0.7356,0.732,0.7299,0.7529,0.7529,0.7529,0,0,0.7231,0.7269,0.7256,0.7275,0.7299,0.7282,0.7384,0.7363,0.7351,0.7456,0.7422,0.745,0.7479,0.7424,0.7402,0.7443,0.7295,0.7354,0.7341,0.7339,0.7308,0.7287,0.7267,0.7523,0.7524,0.7525,0,0,0.7085,0.7113,0.707,0.7091,0.7125,0.7169,0.7159,0.7209,0.7232,0.7199,0.7278,0.7265,0.7254,0.7272,0.728,0.714,0.72,0.7138,0.704,0.7005,0.6987,0.6971,0.6921,0.6902,0.7128,0.7127,0.7127,0,0.6987,0.6967,0.704,0.7014,0.7019,0.7115,0.7071,0.7088,0.7118,0.712,0.7166,0.7155,0.7181,0.7132,0.7098,0.7101,0.7091,0.7132,0.6984,0.6969,0.6955,0.6909,0.689,0.712,0.712,0.7121,0.7122,0,0.6843,0.6828,0.6789,0.6818,0.6819,0.6784,0.6851,0.6843,0.6892,0.6931,0.6896,0.6932,0.6939,0.6931,0.6978,0.6888,0.6913,0.697,0.705,0.6924,0.6882,0.6864,0.7108,0.7111,0.7113,0.7115,0,0,0.6613,0.6684,0.6668,0.6682,0.6727,0.6716,0.6685,0.6693,0.6685,0.6703,0.6679,0.6668,0.6722,0.673,0.678,0.6748,0.6636,0.681,0.6812,0.6776,0.6538,0.6495,0.6473,0.6675,0.6672,0.667,0.6536,0,0.6477,0.6429,0.6494,0.6431,0.6418,0.6508,0.6481,0.6505,0.654,0.6534,0.6573,0.6564,0.6636,0.6641,0.6615,0.6655,0.6589,0.6665,0.6652,0.6651,0.6642,0.6451,0.6405,0.6276,0.652,0.6517,0.6515,0,0.6312,0.6323,0.6259,0.6308,0.6305,0.6279,0.6292,0.6285,0.6313,0.6342,0.6351,0.6411,0.6383,0.6461,0.6423,0.6474,0.6472,0.6491,0.6488,0.6489,0.6575,0.6446,0.6237,0.6217,0.6489,0.6491,0.6493,0,0.615,0.6149,0.6111,0.612,0.6176,0.6156,0.6178,0.6211,0.6212,0.6223,0.6225,0.6232,0.6235,0.6239,0.6298,0.635,0.6253,0.6336,0.6275,0.6273,0.625,0.6251,0.6037,0.6249,0.6249,0.625,0.625,0,0.5991,0.5948,0.6039,0.6015,0.597,0.6044,0.5997,0.6028,0.6056,0.604,0.6118,0.61,0.6181,0.6171,0.6217,0.6179,0.618,0.6201,0.6214,0.6194,0.6191,0.6194,0.6204,0.6245,0.6246,0.6247,0.6248,0,0.5802,0.5861,0.5826,0.5882,0.5895,0.5859,0.5907,0.5887,0.5928,0.5906,0.5905,0.5969,0.5962,0.6022,0.6026,0.6058,0.5997,0.6025,0.5987,0.5996,0.5931,0.5936,0.5712,0.5686,0.5914,0.5912,0.591,0,0.5697,0.5666,0.5719,0.5714,0.5733,0.5724,0.5726,0.5798,0.5796,0.5826,0.5802,0.5802,0.5806,0.579,0.5837,0.584,0.5869,0.579,0.587,0.5851,0.5868,0.5869,0.5866,0.5773,0.577,0.5768,0.5766,0,0.5503,0.5534,0.5535,0.5545,0.5545,0.5556,0.5572,0.5563,0.5642,0.5636,0.5631,0.5633,0.5638,0.5637,0.5649,0.5672,0.5731,0.5741,0.5727,0.5706,0.5685,0.5695,0.5942,0.5746,0.5748,0.5749,0.575,0.5751,0.5353,0.533,0.5364,0.5362,0.5382,0.5395,0.5379,0.5419,0.5416,0.5426,0.5469,0.5455,0.5485,0.5508,0.5524,0.5515,0.5553,0.5532,0.5527,0.5521,0.5509,0.5687,0.5517,0.5518,0.5518,0.5519,0.5519,0,0.5164,0.519,0.5187,0.5208,0.5206,0.5264,0.5285,0.5279,0.5266,0.5289,0.5291,0.5285,0.5284,0.533,0.5335,0.5318,0.5345,0.5317,0.5318,0.5322,0.5475,0.5486,0.5294,0.5294,0.5294,0.5295,0.5295,0.5295,0.5065,0.5029,0.5064,0.5038,0.5065,0.5054,0.5061,0.5073,0.5092,0.5081,0.5082,0.5112,0.5144,0.5152,0.5153,0.5167,0.5165,0.5126,0.5149,0.529,0.5312,0.5333,0.5344,0.5125,0.5125,0.4998,0.4997,0.4996]},{"header":{"parameterUnit":"m.s-1","parameterCategory":1,"la1":30.2991,"la2":30.254,"lo1":-89.0895,"lo2":-89.0444,"dy":0.0017,"dx":0.0017,"nx":28,"ny":28,"refTime":"2024-04-04T03:00:00:Z","depth":0,"parameterNumber":3,"parameterNumberName":"V-component_of_WINDS"},"data":[0,0,0,0,0,0,0,0,0,0,0,0,0,0,0,0,0,0,0,0,0,0,0,0,0,0,0,0,0,0,0,0,0,0,0,0,0,0,0,0,0,0,0,0,0,0,0,0,0,0,0,0,0,0,0,0,0,0,0.0705,0.0706,0,0.0712,0.0712,0.0712,0.0696,0.0696,0.0695,0.0695,0.0702,0.0702,0.0703,0,0,0,0,0,0,0,0,0,0,0,0,0,0.0677,0.0677,0.0705,0.0706,0.0706,0.0712,0.0712,0.0712,0.0696,0.0696,0.0695,0.0694,0.0701,0.0702,0.0703,0,0,0,0,0,0,0,0,0,0,0,0,0,0.0687,0.0678,0.0705,0.0698,0.0698,0.0712,0.0712,0.0712,0.0696,0.0696,0.0695,0.0694,0.0701,0.0702,0.0703,0.0725,0,0,0.0706,0.0706,0,0,0,0,0,0,0,0,0.0686,0.0688,0.0699,0.0699,0.0698,0.0703,0.0705,0.0717,0.0697,0.0697,0.0695,0.0694,0.0703,0.0703,0.0706,0.0725,0.0725,0.0706,0.0707,0.0707,0.0707,0,0,0,0,0,0,0,0.0686,0.0688,0.0708,0.0699,0.0699,0.0694,0.0695,0.0707,0.0704,0.0697,0.0696,0.0697,0.0702,0.0705,0.0706,0.0725,0.0706,0.0707,0.0708,0.0708,0.0759,0.076,0,0,0,0,0,0,0.0686,0.0687,0.0708,0.0708,0.069,0.0695,0.0696,0.0702,0.0704,0.0703,0.0697,0.0696,0.0704,0.0705,0.0707,0.073,0.0707,0.0708,0.0709,0.0758,0.0759,0.076,0,0,0,0,0,0,0.0686,0.0688,0.0708,0.0697,0.07,0.0697,0.0703,0.0703,0.0706,0.0704,0.0703,0.0701,0.0704,0.0705,0.072,0.073,0.0709,0.0709,0.0757,0.0758,0.0759,0.0777,0,0,0,0,0,0,0.0685,0.0688,0.0697,0.0698,0.07,0.0721,0.0704,0.0703,0.0708,0.0706,0.0708,0.0707,0.0703,0.0718,0.0721,0.0731,0.071,0.0756,0.0758,0.0759,0.0776,0.0779,0.0782,0,0,0,0,0,0.0684,0.0702,0.0697,0.07,0.0711,0.0722,0.0723,0.0718,0.0709,0.0717,0.0715,0.0707,0.0729,0.072,0.0722,0.0733,0.0756,0.0757,0.0759,0.0775,0.0778,0.0782,0,0,0,0,0,0,0.0703,0.0702,0.0697,0.0716,0.0719,0.0719,0.0729,0.0722,0.0728,0.0726,0.0719,0.072,0.0735,0.0736,0.0726,0.0752,0.074,0.0743,0.0751,0.0755,0.0758,0.0757,0.0711,0,0,0,0,0,0.0709,0.0718,0.0717,0.0734,0.0736,0.0732,0.0737,0.0732,0.0735,0.0736,0.0736,0.0739,0.0746,0.0751,0.0757,0.0776,0.0775,0.0785,0.0788,0.079,0.0791,0.0799,0.0802,0.0765,0.0765,0.0765,0,0,0.0722,0.0723,0.0729,0.0738,0.074,0.0748,0.0733,0.0744,0.075,0.0738,0.0751,0.0751,0.0753,0.0769,0.0776,0.077,0.0802,0.0792,0.0794,0.0794,0.0801,0.0805,0.0808,0.0767,0.0766,0.0766,0,0,0.075,0.0753,0.0766,0.0768,0.077,0.0767,0.0771,0.0771,0.077,0.0783,0.0774,0.0781,0.0794,0.0795,0.0798,0.0824,0.0816,0.0827,0.0841,0.0849,0.0852,0.0854,0.0861,0.0864,0.0829,0.0829,0.0829,0,0.0766,0.0779,0.0774,0.0784,0.0787,0.0776,0.0788,0.079,0.0795,0.0797,0.079,0.0805,0.0806,0.0821,0.0827,0.083,0.0832,0.0826,0.0852,0.0854,0.0856,0.0863,0.0866,0.083,0.083,0.0829,0.0829,0,0.0797,0.0806,0.0817,0.082,0.0825,0.0836,0.0831,0.0836,0.0831,0.0829,0.0841,0.0842,0.0847,0.0851,0.0847,0.0865,0.086,0.0853,0.084,0.0861,0.0867,0.087,0.0831,0.0831,0.0831,0.083,0,0,0.0837,0.0837,0.084,0.0841,0.0842,0.0849,0.0859,0.0864,0.0867,0.0871,0.0878,0.0888,0.0881,0.0883,0.0879,0.0886,0.0904,0.0877,0.0877,0.088,0.0921,0.0926,0.0929,0.0899,0.09,0.09,0.092,0,0.0863,0.088,0.0874,0.0891,0.0898,0.0887,0.0896,0.0897,0.0895,0.09,0.0898,0.0904,0.0895,0.0896,0.0903,0.09,0.0912,0.0899,0.0904,0.0905,0.0902,0.0932,0.0937,0.0956,0.0923,0.0923,0.0924,0,0.0895,0.0898,0.0916,0.0914,0.0916,0.0924,0.0927,0.0933,0.0933,0.0931,0.0934,0.0927,0.0936,0.0924,0.0935,0.0927,0.0929,0.0928,0.0928,0.0927,0.0914,0.093,0.0963,0.0965,0.0928,0.0928,0.0927,0,0.0919,0.0928,0.0939,0.094,0.0939,0.0944,0.0944,0.0944,0.0947,0.095,0.0951,0.0955,0.0957,0.0959,0.0954,0.0946,0.0965,0.0953,0.0962,0.0962,0.0965,0.0965,0.0996,0.097,0.097,0.097,0.097,0,0.0947,0.0957,0.0949,0.0956,0.0967,0.096,0.0971,0.097,0.097,0.0975,0.0967,0.0972,0.0965,0.0969,0.0965,0.0974,0.0975,0.0973,0.0971,0.0973,0.0973,0.0973,0.097,0.097,0.097,0.097,0.097,0,0.0975,0.097,0.0981,0.0979,0.0978,0.0986,0.0984,0.0989,0.0986,0.0993,0.0994,0.099,0.0994,0.0989,0.0994,0.0991,0.1002,0.0999,0.1001,0.1,0.1008,0.1007,0.1039,0.1043,0.1015,0.1016,0.1016,0,0.0992,0.0999,0.0997,0.1,0.1,0.1005,0.1007,0.1001,0.1004,0.1004,0.1009,0.1013,0.1015,0.1023,0.1019,0.1022,0.1019,0.103,0.1019,0.1019,0.1016,0.1015,0.1015,0.1032,0.1032,0.1032,0.1032,0,0.1022,0.1019,0.1022,0.1024,0.1027,0.1029,0.103,0.1033,0.1026,0.1029,0.1033,0.1035,0.1039,0.1042,0.1044,0.1043,0.1036,0.1036,0.1038,0.1038,0.1038,0.1036,0.1005,0.1035,0.1035,0.1035,0.1034,0.1034,0.1043,0.1048,0.1047,0.1051,0.1051,0.1052,0.1056,0.1053,0.1057,0.1059,0.1055,0.106,0.1059,0.1061,0.106,0.1064,0.1059,0.1062,0.1062,0.1063,0.1063,0.1039,0.1064,0.1064,0.1064,0.1064,0.1064,0,0.107,0.1069,0.1072,0.1074,0.1076,0.107,0.107,0.1073,0.1077,0.1077,0.1079,0.1083,0.1086,0.1082,0.1084,0.1087,0.1084,0.1088,0.1087,0.1086,0.1068,0.1066,0.109,0.109,0.109,0.109,0.109,0.109,0.1085,0.1092,0.1089,0.1097,0.1095,0.1099,0.11,0.11,0.11,0.1105,0.1107,0.1105,0.1103,0.1104,0.1106,0.1105,0.1106,0.111,0.1108,0.1091,0.1088,0.1085,0.1083,0.1111,0.1111,0.1125,0.1126,0.1126]}]]